| time (UTC) | temp C | wind direction | speed KPH | gust KPH | rain 1hr cm | rain 24hr cm | rain mn cm | humidity % | barometer mb |
| 20260507183044 | -17 | 0.0 | 0.0 | 0.00 | 0.89 | 0.00 | 1016.9 | ||
| 20260507180112 | -17 | 0.0 | 0.0 | 0.00 | 0.89 | 0.00 | 1017.0 | ||
| 20260507174505 | -17 | 0.0 | 0.0 | 0.00 | 0.89 | 0.00 | 1016.8 | ||
| 20260507171555 | -17 | 0.0 | 0.0 | 0.00 | 0.89 | 0.00 | 1016.7 | ||
| 20260507164532 | -17 | 0.0 | 0.0 | 0.00 | 0.89 | 0.00 | 1016.8 | ||
| 20260507163047 | -17 | 0.0 | 0.0 | 0.00 | 0.89 | 0.00 | 1017.0 | ||
| 20260507160032 | -17 | 0.0 | 0.0 | 0.00 | 0.89 | 0.00 | 1016.9 | ||
| 20260507154559 | -17 | 0.0 | 0.0 | 0.00 | 0.89 | 0.00 | 1016.9 | ||
| 20260507153054 | -17 | 0.0 | 0.0 | 0.00 | 0.89 | 0.00 | 1017.1 | ||
| 20260507151552 | -17 | 0.0 | 0.0 | 0.00 | 0.89 | 0.00 | 1017.2 | ||
| 20260507144544 | -17 | 0.0 | 0.0 | 0.00 | 0.89 | 0.00 | 1017.4 | ||
| 20260507141538 | -17 | 0.0 | 0.0 | 0.00 | 0.89 | 0.00 | 1017.5 | ||
| 20260507140043 | -17 | 0.0 | 0.0 | 0.00 | 0.89 | 0.00 | 1017.7 | ||
| 20260507134636 | -17 | 0.0 | 0.0 | 0.00 | 0.89 | 0.00 | 1017.4 | ||
| 20260507133008 | -17 | 0.0 | 0.0 | 0.00 | 0.89 | 0.00 | 1017.9 | ||
| 20260507130104 | -17 | 0.0 | 0.0 | 0.00 | 0.89 | 0.00 | 1017.8 | ||
| 20260507124512 | 17 | 93 | 8.0 | 29.0 | 0.00 | 0.89 | 0.00 | 75 | 1018.0 |
| 20260507123100 | 16 | 148 | 12.9 | 22.5 | 0.00 | 0.89 | 0.00 | 78 | 1018.1 |
| 20260507121524 | 16 | 116 | 6.4 | 17.7 | 0.00 | 0.89 | 0.00 | 84 | 1018.0 |
| 20260507120058 | 15 | 106 | 6.4 | 20.9 | 0.00 | 0.89 | 0.00 | 86 | 1018.2 |
| 20260507120007 | 15 | 108 | 6.4 | 20.9 | 0.00 | 0.89 | 0.00 | 86 | 1018.3 |
| 20260507114538 | 15 | 75 | 4.8 | 24.1 | 0.00 | 0.89 | 0.00 | 86 | 1018.6 |
| 20260507113020 | 15 | 113 | 6.4 | 24.1 | 0.00 | 0.89 | 0.00 | 87 | 1018.5 |
| 20260507111554 | 15 | 175 | 8.0 | 24.1 | 0.00 | 0.89 | 0.00 | 89 | 1018.6 |
| 20260507110034 | 15 | 161 | 6.4 | 20.9 | 0.00 | 0.89 | 0.00 | 90 | 1018.7 |
| 20260507104510 | 15 | 160 | 4.8 | 17.7 | 0.00 | 0.89 | 0.00 | 90 | 1018.9 |
| 20260507103048 | 15 | 84 | 6.4 | 17.7 | 0.00 | 0.89 | 0.00 | 90 | 1018.9 |
| 20260507101524 | 15 | 172 | 8.0 | 29.0 | 0.00 | 0.89 | 0.00 | 91 | 1018.9 |
| 20260507100007 | 15 | 86 | 12.9 | 24.1 | 0.00 | 0.89 | 0.89 | 90 | 1018.9 |
| 20260507094547 | 15 | 116 | 12.9 | 33.8 | 0.00 | 0.89 | 0.89 | 90 | 1018.9 |
| 20260507093019 | 15 | 110 | 9.7 | 32.2 | 0.00 | 0.89 | 0.89 | 94 | 1018.8 |
| 20260507091556 | 14 | 124 | 9.7 | 22.5 | 0.00 | 0.89 | 0.89 | 95 | 1018.6 |
| 20260507090032 | 13 | 79 | 12.9 | 25.7 | 0.00 | 0.89 | 0.89 | 96 | 1018.7 |
| 20260507084515 | 13 | 96 | 12.9 | 25.7 | 0.00 | 0.89 | 0.89 | 96 | 1018.6 |
| 20260507083039 | 13 | 76 | 9.7 | 20.9 | 0.00 | 0.89 | 0.89 | 96 | 1018.5 |
| 20260507081520 | 13 | 84 | 6.4 | 20.9 | 0.00 | 0.89 | 0.89 | 96 | 1018.1 |
| 20260507080001 | 13 | 148 | 8.0 | 24.1 | 0.00 | 0.89 | 0.89 | 96 | 1017.7 |
| 20260507074533 | 13 | 101 | 9.7 | 27.4 | 0.00 | 0.89 | 0.89 | 96 | 1018.0 |
| 20260507073012 | 13 | 41 | 14.5 | 29.0 | 0.00 | 0.89 | 0.89 | 96 | 1017.1 |
| 20260507071546 | 13 | 359 | 6.4 | 20.9 | 0.00 | 0.89 | 0.89 | 96 | 1018.5 |
| 20260507070032 | 13 | 30 | 8.0 | 19.3 | 0.00 | 0.89 | 0.89 | 96 | 1019.2 |
| 20260507064637 | 13 | 77 | 8.0 | 19.3 | 0.00 | 0.89 | 0.89 | 96 | 1019.2 |
| 20260507064503 | 13 | 143 | 8.0 | 24.1 | 0.00 | 0.89 | 0.89 | 96 | 1019.2 |
| 20260507063041 | 13 | 115 | 6.4 | 19.3 | 0.00 | 0.89 | 0.89 | 96 | 1019.2 |
| 20260507061516 | 13 | 32 | 8.0 | 19.3 | 0.00 | 0.89 | 0.89 | 96 | 1019.1 |
| 20260507060111 | 13 | 68 | 4.8 | 12.9 | 0.00 | 0.89 | 0.89 | 96 | 1019.1 |
| 20260507054538 | 13 | 44 | 1.6 | 9.7 | 0.00 | 0.89 | 0.89 | 96 | 1019.5 |
| 20260507053011 | 13 | 95 | 1.6 | 9.7 | 0.00 | 0.89 | 0.89 | 96 | 1019.6 |
| 20260507051601 | 13 | 109 | 0.0 | 12.9 | 0.00 | 0.89 | 0.89 | 96 | 1019.4 |
| 20260507050036 | 12 | 126 | 1.6 | 9.7 | 0.00 | 0.89 | 0.89 | 96 | 1019.0 |
| 20260507044503 | 13 | 349 | 4.8 | 14.5 | 0.00 | 0.89 | 0.89 | 96 | 1018.5 |
| 20260507043041 | 13 | 28 | 3.2 | 11.3 | 0.03 | 0.89 | 0.89 | 96 | 1018.6 |
| 20260507041524 | 13 | 62 | 8.0 | 17.7 | 0.08 | 0.89 | 0.89 | 96 | 1017.9 |
| 20260507040052 | 13 | 25 | 8.0 | 16.1 | 0.23 | 0.89 | 0.89 | 96 | 1018.3 |
| 20260507040001 | 13 | 58 | 8.0 | 16.1 | 0.23 | 0.89 | 0.89 | 96 | 1018.3 |
| 20260507034531 | 13 | 57 | 3.2 | 14.5 | 0.30 | 0.89 | 0.89 | 96 | 1018.2 |
| 20260507033004 | 13 | 24 | 4.8 | 16.1 | 0.28 | 0.86 | 0.86 | 96 | 1018.1 |
| 20260507031538 | 13 | 33 | 4.8 | 9.7 | 0.23 | 0.81 | 0.84 | 96 | 1018.6 |
| 20260507030026 | 13 | 57 | 3.2 | 12.9 | 0.08 | 0.66 | 0.66 | 96 | 1018.8 |
| 20260507024544 | 13 | 109 | 1.6 | 16.1 | 0.00 | 0.58 | 0.58 | 96 | 1018.4 |
| 20260507023025 | 13 | 66 | 4.8 | 14.5 | 0.00 | 0.58 | 0.58 | 96 | 1018.3 |
| 20260507021600 | 13 | 124 | 0.0 | 4.8 | 0.08 | 0.58 | 0.58 | 96 | 1017.9 |
| 20260507021502 | 13 | 115 | 1.6 | 4.8 | 0.08 | 0.58 | 0.58 | 96 | 1017.8 |
| 20260507020046 | 13 | 8 | 1.6 | 8.0 | 0.13 | 0.58 | 0.58 | 96 | 1016.9 |
| 20260507014522 | 13 | 25 | 4.8 | 14.5 | 0.13 | 0.58 | 0.58 | 95 | 1016.8 |
| 20260507013053 | 13 | 332 | 8.0 | 20.9 | 0.13 | 0.58 | 0.58 | 95 | 1016.0 |
| 20260507011538 | 13 | 172 | 0.0 | 8.0 | 0.05 | 0.51 | 0.51 | 95 | 1018.5 |
| 20260507010114 | 13 | 101 | 3.2 | 9.7 | 0.00 | 0.46 | 0.46 | 95 | 1018.7 |
| 20260507010004 | 13 | 91 | 3.2 | 9.7 | 0.00 | 0.46 | 0.46 | 95 | 1018.7 |
| 20260507004540 | 13 | 20 | 3.2 | 16.1 | 0.00 | 0.46 | 0.46 | 95 | 1017.4 |
| 20260507003015 | 13 | 83 | 8.0 | 16.1 | 0.03 | 0.46 | 0.46 | 95 | 1017.3 |
| 20260507001557 | 13 | 65 | 3.2 | 11.3 | 0.03 | 0.46 | 0.46 | 95 | 1017.9 |
| 20260507000030 | 13 | 191 | 1.6 | 11.3 | 0.10 | 0.46 | 0.46 | 95 | 1017.8 |
| 20260506234510 | 13 | 151 | 1.6 | 11.3 | 0.13 | 0.46 | 0.46 | 95 | 1017.4 |
| 20260506233050 | 13 | 150 | 0.0 | 12.9 | 0.18 | 0.43 | 0.43 | 95 | 1017.4 |
| 20260506231523 | 13 | 356 | 6.4 | 14.5 | 0.36 | 0.43 | 0.43 | 95 | 1016.9 |
| 20260506230010 | 13 | 26 | 4.8 | 8.0 | 0.33 | 0.36 | 0.36 | 95 | 1017.4 |
| 20260506224540 | 14 | 101 | 0.0 | 4.8 | 0.33 | 0.33 | 0.33 | 95 | 1018.1 |
| 20260506223017 | 14 | 148 | 0.0 | 1.6 | 0.23 | 0.23 | 0.25 | 95 | 1018.1 |
| 20260506221610 | 14 | 43 | 0.0 | 11.3 | 0.08 | 0.08 | 0.10 | 95 | 1017.9 |
| 20260506220037 | 13 | 131 | 4.8 | 11.3 | 0.03 | 0.03 | 0.03 | 95 | 1018.0 |
| 20260506214505 | 13 | 65 | 3.2 | 12.9 | 0.00 | 0.00 | 0.00 | 94 | 1017.9 |
| 20260506213048 | 13 | 119 | 6.4 | 16.1 | 0.00 | 0.00 | 0.00 | 94 | 1018.1 |
| 20260506211522 | 13 | 94 | 8.0 | 20.9 | 0.00 | 0.00 | 0.00 | 94 | 1017.9 |
| 20260506210105 | 13 | 94 | 8.0 | 19.3 | 0.00 | 0.00 | 0.00 | 94 | 1017.8 |
| 20260506204536 | 13 | 172 | 8.0 | 20.9 | 0.00 | 0.00 | 0.00 | 94 | 1017.7 |
| 20260506203014 | 13 | 128 | 4.8 | 17.7 | 0.00 | 0.00 | 0.00 | 94 | 1017.7 |
| 20260506201550 | 13 | 124 | 8.0 | 20.9 | 0.00 | 0.00 | 0.00 | 93 | 1017.6 |
| 20260506200026 | 13 | 176 | 6.4 | 16.1 | 0.00 | 0.00 | 0.00 | 93 | 1017.3 |
| 20260506194556 | 13 | 62 | 4.8 | 19.3 | 0.00 | 0.00 | 0.00 | 93 | 1017.3 |
| 20260506193034 | 13 | 89 | 8.0 | 19.3 | 0.00 | 0.00 | 0.00 | 93 | 1017.1 |
| 20260506191551 | 13 | 156 | 9.7 | 24.1 | 0.00 | 0.00 | 0.00 | 93 | 1017.2 |
| 20260506190029 | 13 | 101 | 8.0 | 17.7 | 0.00 | 0.00 | 0.00 | 92 | 1017.0 |
| 20260506184620 | 13 | 61 | 11.3 | 16.1 | 0.00 | 0.00 | 0.00 | 92 | 1017.0 |